Location: Unspecified
(0.0000°N, 0.0000°E)
Time: 19:48:16
(UTC+00:00)

Vanguard 3 - Pass Details

Date: 28 September 2023
Orbit: 507 x 3241 km, 33.3° (Epoch: 29 November)

Event Time Altitude Azimuth Distance (km) Brightness Sun altitude
Rises 13:02:29 0° 225° (SW) 6,727 12.0 71.9°
Reaches altitude 10° 13:06:53 10° 221° (SW) 5,920 11.9 70.9°
Maximum altitude 13:26:04 58° 146° (SE) 3,542 11.1 66.1°
Drops below altitude 10° 13:42:40 10° 71° (ENE) 5,255 11.1 61.9°
Sets 13:46:14 0° 67° (ENE) 5,970 11.3 61.1°
